Date String (YYYY-MM-DD hh:mm:ss) UTC,Instrument flags,absolute air pressure of the measurement (hPa),sample flow rate (lpm),inlet stack bypass flow (lpm),air temperature of the measurement (°C),ambient temperature measured by the external sensor (°C),aerosol sample conditioner tube jacket temperature (°C),OPC LED temperature (°C),internal box temperature (°C),relative humidity of the measurement (%),span deviation,mass concentration of particles derived from Lorenz-Mie calculation of OPC scattering (μg/m³),mass concentration of particles derived from Lorenz-Mie calculation of OPC scattering (μg/m³),mass concentration of particles derived from Lorenz-Mie calculation of OPC scattering (μg/m³)
DateTimeUTC,F1_M11,P_M11,Q1_M11,Q2_M11,T1_M11,T2_M11,T3_M11,T4_M11,T5_M11,U1_M11,ZSPAN_M11,X2_M11,X0_M11,X1_M11
2023-06-09 10:00:00,SystemResetWarning,0829.8,5.00,000.00,028.9,027.4,000.0,037.6,030.2,17.6,0000.0,0002.42,0006.52,0001.52
2023-06-09 10:01:00,SystemResetWarning,0829.7,5.00,000.00,028.9,027.4,000.0,037.6,030.2,17.6,0000.0,0002.40,0005.98,0001.49
2023-06-09 10:02:00,SystemResetWarning,0829.7,5.00,000.00,028.9,027.4,000.0,037.6,030.2,17.5,0000.0,0002.36,0005.86,0001.50
2023-06-09 10:03:00,SystemResetWarning,0829.7,5.00,000.00,028.9,027.4,000.0,037.6,030.2,17.4,0000.0,0002.33,0005.70,0001.51
2023-06-09 10:04:00,SystemResetWarning,0829.7,5.00,000.00,028.9,027.4,000.0,037.6,030.3,17.4,0000.0,0002.29,0005.50,0001.51
2023-06-09 10:05:00,SystemResetWarning,0829.7,5.01,000.00,028.9,027.4,000.0,037.6,030.3,17.4,0000.0,0002.22,0005.28,0001.50
2023-06-09 10:06:00,SystemResetWarning,0829.7,5.00,000.00,028.9,027.4,000.0,037.6,030.3,17.4,0000.0,0002.23,0004.45,0001.51
2023-06-09 10:07:00,SystemResetWarning,0829.7,5.00,000.00,028.9,027.4,000.0,037.5,030.3,17.4,0000.0,0002.22,0004.53,0001.50
2023-06-09 10:08:00,SystemResetWarning,0829.7,5.00,000.00,028.9,027.4,000.0,037.5,030.3,17.4,0000.0,0002.23,0003.99,0001.51
2023-06-09 10:09:00,SystemResetWarning,0829.7,5.00,000.00,028.9,027.4,000.0,037.5,030.3,17.4,0000.0,0002.25,0004.15,0001.51
2023-06-09 10:10:00,SystemResetWarning,0829.7,5.00,000.00,028.9,027.4,000.0,037.5,030.3,17.4,0000.0,0002.25,0004.34,0001.52
2023-06-09 10:11:00,SystemResetWarning,0829.7,5.00,000.00,028.9,027.4,000.0,037.5,030.3,17.4,0000.0,0002.22,0004.31,0001.51
2023-06-09 10:12:00,SystemResetWarning,0829.7,5.00,000.00,028.9,027.4,000.0,037.5,030.3,17.4,0000.0,0002.20,0004.20,0001.53
2023-06-09 10:13:00,SystemResetWarning,0829.7,5.00,000.00,028.9,027.4,000.0,037.5,030.3,17.6,0000.0,0002.22,0004.30,0001.52
2023-06-09 10:14:00,SystemResetWarning,0829.7,5.01,000.00,028.9,027.4,000.0,037.5,030.3,17.6,0000.0,0002.23,0004.35,0001.51
2023-06-09 10:15:00,SystemResetWarning,0829.7,5.01,000.00,028.9,027.4,000.0,037.5,030.3,17.6,0000.0,0002.30,0004.52,0001.51
2023-06-09 10:16:00,SystemResetWarning,0829.7,5.00,000.00,028.9,027.4,000.0,037.5,030.3,17.4,0000.0,0002.33,0004.70,0001.52
2023-06-09 10:17:00,SystemResetWarning,0829.8,4.99,000.00,028.9,027.4,000.0,037.5,030.3,17.0,0000.0,0002.36,0004.79,0001.53
2023-06-09 10:18:00,SystemResetWarning,0829.8,4.99,000.00,028.9,027.4,000.0,037.5,030.3,17.3,0000.0,0002.34,0004.67,0001.55
2023-06-09 10:19:00,SystemResetWarning,0829.8,5.00,000.00,028.9,027.5,000.0,037.5,030.3,17.3,0000.0,0002.35,0004.74,0001.56
2023-06-09 10:20:00,SystemResetWarning,0829.9,5.00,000.00,028.9,027.5,000.0,037.5,030.3,17.4,0000.0,0002.38,0004.66,0001.57
2023-06-09 10:21:00,SystemResetWarning,0829.9,5.01,000.00,028.9,027.4,000.0,037.5,030.2,17.5,0000.0,0002.37,0004.38,0001.56
2023-06-09 10:22:00,SystemResetWarning,0829.8,5.00,000.00,028.9,027.4,000.0,037.5,030.2,17.6,0000.0,0002.39,0004.82,0001.56
2023-06-09 10:23:00,SystemResetWarning,0829.8,5.01,000.00,028.9,027.4,000.0,037.5,030.3,17.4,0000.0,0002.45,0005.17,0001.58
2023-06-09 10:24:00,SystemResetWarning,0829.8,5.00,000.00,028.9,027.4,000.0,037.5,030.3,17.4,0000.0,0002.46,0005.19,0001.59
2023-06-09 10:25:00,SystemResetWarning,0829.8,5.00,000.00,028.9,027.5,000.0,037.5,030.4,17.3,0000.0,0002.49,0005.29,0001.59
2023-06-09 10:26:00,SystemResetWarning,0829.8,5.00,000.00,028.9,027.5,000.0,037.5,030.5,17.4,0000.0,0002.48,0005.29,0001.60
2023-06-09 10:27:00,SystemResetWarning,0829.9,5.00,000.00,028.9,027.5,000.0,037.5,030.5,17.6,0000.0,0002.47,0005.17,0001.59
2023-06-09 10:28:00,SystemResetWarning,0829.9,4.99,000.00,029.0,027.5,000.0,037.5,030.5,17.7,0000.0,0002.45,0005.97,0001.58
2023-06-09 10:29:00,SystemResetWarning,0829.9,5.00,000.00,029.0,027.6,000.0,037.5,030.5,17.6,0000.0,0002.44,0007.49,0001.58
2023-06-09 10:30:00,SystemResetWarning,0829.9,4.99,000.00,029.0,027.6,000.0,037.5,030.5,17.1,0000.0,0002.42,0007.89,0001.60
2023-06-09 10:31:00,SystemResetWarning,0829.8,5.00,000.00,029.0,027.6,000.0,037.5,030.6,17.1,0000.0,0002.38,0007.81,0001.61
2023-06-09 10:32:00,SystemResetWarning,0829.8,5.00,000.00,029.1,027.6,000.0,037.6,030.6,17.2,0000.0,0002.44,0007.99,0001.63
2023-06-09 10:33:00,SystemResetWarning,0829.9,5.00,000.00,029.1,027.6,000.0,037.6,030.6,16.9,0000.0,0002.47,0007.96,0001.64
2023-06-09 10:34:00,SystemResetWarning,0829.9,5.01,000.00,029.1,027.6,000.0,037.6,030.6,16.8,0000.0,0002.43,0007.73,0001.64
2023-06-09 10:35:00,SystemResetWarning,0829.8,5.00,000.00,029.1,027.7,000.0,037.6,030.7,16.9,0000.0,0002.48,0007.75,0001.65
2023-06-09 10:36:00,SystemResetWarning,0829.9,5.00,000.00,029.1,027.7,000.0,037.6,030.7,17.0,0000.0,0002.53,0007.77,0001.66
2023-06-09 10:37:00,SystemResetWarning,0829.9,5.00,000.00,029.1,027.7,000.0,037.6,030.7,16.7,0000.0,0002.53,0007.78,0001.67
2023-06-09 10:38:00,SystemResetWarning,0829.8,5.00,000.00,029.1,027.7,000.0,037.6,030.7,16.7,0000.0,0002.54,0007.80,0001.68
2023-06-09 10:39:00,SystemResetWarning,0829.9,5.00,000.00,029.2,027.7,000.0,037.6,030.7,16.7,0000.0,0002.55,0007.53,0001.68
2023-06-09 10:40:00,SystemResetWarning,0829.9,5.00,000.00,029.2,027.7,000.0,037.7,030.7,16.5,0000.0,0002.57,0006.21,0001.69
2023-06-09 10:41:00,SystemResetWarning,0829.9,5.00,000.00,029.2,027.7,000.0,037.7,030.7,16.7,0000.0,0002.60,0005.10,0001.68
2023-06-09 10:42:00,SystemResetWarning,0830.0,5.00,000.00,029.2,027.7,000.0,037.7,030.7,16.6,0000.0,0002.65,0005.22,0001.68
2023-06-09 10:43:00,SystemResetWarning,0830.0,5.00,000.00,029.2,027.8,000.0,037.7,030.7,16.4,0000.0,0002.64,0004.99,0001.69
2023-06-09 10:44:00,SystemResetWarning,0830.0,5.00,000.00,029.2,027.8,000.0,037.7,030.8,16.4,0000.0,0002.66,0004.96,0001.70
2023-06-09 10:45:00,SystemResetWarning,0830.0,5.00,000.00,029.2,027.8,000.0,037.7,030.8,16.6,0000.0,0002.77,0005.21,0001.73
2023-06-09 10:46:00,SystemResetWarning,0830.0,5.00,000.00,029.2,027.8,000.0,037.7,030.8,16.7,0000.0,0002.84,0005.40,0001.76
2023-06-09 10:47:00,SystemResetWarning,0830.0,5.00,000.00,029.3,027.8,000.0,037.7,030.8,16.8,0000.0,0002.88,0005.69,0001.80
2023-06-09 10:48:00,SystemResetWarning,0830.0,4.99,000.00,029.3,027.8,000.0,037.7,030.8,16.8,0000.0,0002.92,0005.81,0001.83
2023-06-09 10:49:00,SystemResetWarning,0830.0,5.00,000.00,029.3,027.8,000.0,037.7,030.8,17.6,0000.0,0003.07,0006.73,0001.86
2023-06-09 10:50:00,SystemResetWarning,0830.0,5.00,000.00,029.3,027.8,000.0,037.8,030.8,19.3,0000.0,0003.10,0006.99,0001.87
2023-06-09 10:51:00,SystemResetWarning,0830.0,5.01,000.00,029.3,027.8,000.0,037.8,030.9,19.9,0000.0,0003.16,0007.24,0001.90
2023-06-09 10:52:00,SystemResetWarning,0830.1,5.01,000.00,029.3,027.8,000.0,037.8,030.9,19.8,0000.0,0003.24,0008.13,0001.94
2023-06-09 10:53:00,SystemResetWarning,0830.0,5.00,000.00,029.3,027.9,000.0,037.8,030.9,19.8,0000.0,0003.25,0008.65,0001.95
2023-06-09 10:54:00,SystemResetWarning,0830.1,5.00,000.00,029.3,027.9,000.0,037.8,030.9,18.8,0000.0,0003.30,0009.15,0001.97
2023-06-09 10:55:00,SystemResetWarning,0830.1,5.00,000.00,029.3,027.9,000.0,037.8,030.9,18.1,0000.0,0003.32,0009.26,0001.99
2023-06-09 10:56:00,SystemResetWarning,0830.1,4.99,000.00,029.4,027.9,000.0,037.8,030.9,19.5,0000.0,0003.30,0009.87,0002.01
2023-06-09 10:57:00,SystemResetWarning,0830.1,5.00,000.00,029.4,027.9,000.0,037.8,030.9,20.4,0000.0,0003.28,0010.69,0002.03
2023-06-09 10:58:00,SystemResetWarning,0830.1,5.00,000.00,029.4,027.9,000.0,037.8,030.9,20.7,0000.0,0003.30,0010.71,0002.04
2023-06-09 10:59:00,SystemResetWarning,0830.1,5.00,000.00,029.4,027.9,000.0,037.9,031.0,20.9,0000.0,0003.34,0010.73,0002.06
